Simultaneous Nadir Overpasses (SNOs) Predictions

Prediction of SNOs between METOP-B and TERRA Satellite Orbit:

Table of predicted SNOs for the next 14.0 days since TLE Epoch: 8/4/2018
Index Date (METOP-B) Time (METOP-B) Lat,Lon (METOP-B) SZA (METOP-B ) Date (TERRA) Time (TERRA) Lat,Lon (TERRA) SZA (TERRA ) Distance(km) Time Diff (sec)
1 08/05/2018 17:54:49 -81.35, 139.02 112.73 08/05/2018 17:55:52 -81.35, 139.14 112.69 1.94 63
2 08/05/2018 18:45:29 81.36, -53.24 67.33 08/05/2018 18:45:18 81.35, -53.12 67.34 1.99 11
3 08/08/2018 13:29:08 -81.36,-154.31 111.91 08/08/2018 13:30:06 -81.36,-154.14 111.86 3.01 58
4 08/08/2018 14:19:48 81.36, 13.38 68.15 08/08/2018 14:19:33 81.35, 13.20 68.11 3.24 15
5 08/11/2018 09:03:26 -81.36, -87.66 111.06 08/11/2018 09:04:20 -81.36, -87.79 111.05 2.20 54
6 08/11/2018 09:54:06 81.36, 80.00 68.99 08/11/2018 09:53:46 81.36, 79.93 68.98 1.21 20
7 08/14/2018 04:37:46 -81.36, -21.40 110.22 08/14/2018 04:38:35 -81.36, -21.42 110.20 0.29 49
8 08/14/2018 05:28:26 81.36, 146.20 69.83 08/14/2018 05:28:01 81.36, 146.28 69.83 1.28 25
9 08/17/2018 00:12:06 -81.35, 44.84 109.35 08/17/2018 00:12:50 -81.35, 44.96 109.32 2.01 44




NCC Satellite Simultaneous Nadir Overpasses (SNOs) Prediction Service
